{"data":{"norad_id":52698,"intl_designator":"2022-053AU","name":"STARLINK-4030","alt_names":[],"object_type":"PAYLOAD","status":"ACTIVE","operator":null,"country":"US","launch_date":"2022-05-18","launch_site_code":"AFETR","launch_vehicle":null,"mission":null,"orbit_class":"UNKNOWN","rcs_meters":null,"size_class":null,"mass_kg":null,"dimensions":null,"purposes":["comms"],"wikipedia_slug":null,"has_3d_model":false,"image_url":null,"decayed_at":null,"tle_current":{"epoch":"2026-09-19T19:32:30.489792Z","epoch_age_seconds":125719,"freshness":"FRESH","line1":"1 52698U 22053AU  26262.81424178  .00001360  00000+0  51408-4 0  9996","line2":"2 52698  53.1626 350.7376 0001571  62.6015 297.5147 15.34386184240475","mean_motion":15.34386184,"eccentricity":0.0001571,"inclination_deg":53.1626,"raan_deg":350.7376,"arg_perigee_deg":62.6015,"mean_anomaly_deg":297.5147,"bstar":5.1408e-5,"rev_number":24047,"period_min":93.848603110206,"perigee_km":461.66960212587003,"apogee_km":463.81900703177,"semimajor_km":6840.8813045788,"source":"CELESTRAK","updated_at":"2026-09-20T09:00:40.107973Z"}}}